Regional Weather Roundup
Issued by NWS Cleveland, OH

Home | Current Version | Previous Version | Text Only | Print | Product List | Glossary Off
Versions: 1 2 3 4 5 6 7 8 9 10 11 12 13 14 15 16 17 18 19 20 21 22 23 24 25 26 27 28 29 30 31 32 33 34 35 36 37 38 39 40 41 42 43 44 45 46 47 48 49 50

000
ASUS41 KCLE 290510
RWRCLE
OHIO REGIONAL WEATHER ROUNDUP
NATIONAL WEATHER SERVICE WILMINGTON, OH
100 AM EDT FRI JUL 29 2016

NOTE: "FAIR" INDICATES FEW OR NO CLOUDS BELOW 12,000 FEET WITH NO
SIGNIFICANT WEATHER AND/OR OBSTRUCTIONS TO VISIBILITY.

OHZ001>008-015>018-024>027-034-035-043-044-290600-
   NORTHWEST OHIO

CITY           SKY/WX    TMP DP  RH WIND       PRES   REMARKS
DEFIANCE       FAIR      73  65  75 E3        29.92R
FINDLAY        FAIR      73  65  75 NE6       29.90S
TOLEDO EXPRESS FAIR      72  69  90 NE8       29.91S
TOLEDO EXEC    FAIR      75  67  76 NE8       29.92S
LIMA           FAIR      70  66  87 CALM      29.91S
$$

OHZ009>014-019>023-028>033-038-089-290600-
   NORTHEAST OHIO

CITY           SKY/WX    TMP DP  RH WIND       PRES   REMARKS
CLE-HOPKINS    FAIR      70  65  84 CALM      29.93R
CLE-LAKEFRONT  FAIR      75  69  81 CALM      29.90R
CUY CO. ARPT   NOT AVBL
LORAIN-ELYRIA  FAIR      64  61  90 CALM      29.92R
ASHTABULA      FAIR      66  65  96 CALM      29.92S
AKRON-CANTON   FAIR      69  66  90 SW3       29.93S
WOOSTER        FOG       64  64 100 CALM      29.93S VSB 1/4
MANSFIELD      FAIR      67  65  93 SE3       29.93F
YOUNGSTOWN     MOCLDY    65  64  97 CALM      29.92F
$$

OHZ042-051>053-060>062-070>072-077>081-290600-
  SOUTHWEST OHIO

CITY           SKY/WX    TMP DP  RH WIND       PRES   REMARKS
CINC-COVINGTON FAIR      74  73  97 SW6       29.92S
CINC-LUNKEN    FAIR      73  73 100 SW3       29.91S
HAMILTON       FAIR      70  67  90 CALM      29.92R
DAYTON         FAIR      72  66  81 CALM      29.93R
WRIGHT-PAT AFB FAIR      73  68  85 SW2       29.92R
DAYTON GENERAL FAIR      74  69  85 SW5       29.92R
WILMINGTON     FAIR      71  70  96 SW6       29.92S
$$

OHZ036-037-039>041-045>050-054>059-063>069-073>076-082>088-290600-
  CENTRAL AND SOUTHEAST OHIO

CITY           SKY/WX    TMP DP  RH WIND       PRES   REMARKS
COLUMBUS       FOG       71  71 100 CALM      29.90F VSB 1/4
OSU AIRPORT    FAIR      68  68 100 CALM      29.90F
BOLTON FIELD   FOG       66  66 100 CALM      29.91F VSB<1/4
RICKENBACK AFB   N/A     67  67 100 S3        29.91S FOG
NEWARK         CLOUDY    70  69  97 CALM      29.91F FOG
MARION         FAIR      70  66  87 CALM      29.91F
LANCASTER      FAIR      70  70 100 CALM      29.92S
ZANESVILLE     CLOUDY    74  70  87 CALM      29.92S
NEW PHILLY     FOG       71  69  93 CALM      29.93R VSB 1/4
$$




USA.gov is the U.S. government's official web portal to all federal, state and local government web resources and services.